Weather in Rogalik

Russia / Rostov Oblast     48°55′33″N   40°03′05″E
temp.,
°C
wind,
m/s
gust,
m/s
humid.,
%
clouds,
%
prec.,
mm/h
press.,
hPa
HPBL,
m
21 january, fri
fri2100:00−11sse4119363 0.0 1018163
03:00−7sse51291100 0.0 1016262
06:00−6sse71593100 0.1 1012378
09:00−4sse81696100 0.4 1010486
12:00−1s61397100 0.8 1009702
15:00+1ssw51088100 0.9 1008588
18:00−1wsw61290100 0.4 1010632
21:00−5ssw3695100 0.4 101177
22 january, sat
sat2200:00−7ssw359592 0.0 101365
03:00−6ssw3794100 0.0 1012107
06:00−6s3893100 0.0 1012147
09:00−8s36945 0.0 101382
12:00−3ssw49895 0.0 1014460
15:00−3ssw24885 0.0 101484
18:00−10sse22935 0.0 101612
21:00−11sse22945 0.0 101710
23 january, sun
sun2300:00−12ese229585 0.0 101810
03:00−12e2195100 0.0 101810
06:00−9ne2293100 0.0 101921
09:00−6ne3691100 0.0 1020115
12:00−4ne4892100 0.0 1020291
15:00−3nne61291100 0.0 1020472
18:00−2ne71395100 1.9 1016480
21:000e51198100 2.9 1016603
24 january, mon
mon2400:00−1e61297100 3.1 1017506
03:00−2e61296100 4.6 1018448
06:00−3e6119483 0.3 1019369
09:00−5ene51094100 0.4 1021271
12:00−4ene51094100 0.1 1022391
15:00−3ene51095100 0.4 1021446
18:00−4ene61195100 0.4 1022423
21:00−4e51295100 1.3 1022443
25 january, tue
tue2500:00−3e5109598 0.4 1022379
03:00−4e4995100 0.8 1022288
06:00−4e4897100 0.5 1022264
09:00−2ese3697100 1.0 1023251
12:000s3496100 0.2 1023393
15:000ssw3493100 0.3 1023406
18:00−1sse2296100 0.0 102357
21:00−2s2398100 0.1 102375